Location: Barrio de Buenos Aires
(28.4500°N, 16.2667°W)
Time: 04:42:29
(UTC+00:00)

YAOGAN 1 - Pass Details

Date: 24 January 2020
Orbit: 619 x 621 km, 98.0° (Epoch: 16 February)

Event Time Altitude Azimuth Distance (km) Brightness Sun altitude
Rises 19:09:50 0° 144° (SE) 2,882 5.8 -7.5°
Reaches altitude 10° 19:12:13 10° 133° (SE) 1,980 4.9 -8.0°
Maximum altitude 19:15:57 30° 73° (ENE) 1,127 3.3 -8.8°
Drops below altitude 10° 19:19:43 10° 13° (NNE) 1,988 4.9 -9.6°
Sets 19:22:06 0° 2° (N) 2,897 5.8 -10.1°
